User: anonymous   Login
Location: Caltech
(34.1382°N, 118.1253°W)
Time: 17:07:27
(UTC-07:00)
Language:

RESURS DK-1 - Orbit

View from above orbital plane
View from above orbital plane
View from above satellite
View from above satellite

Ground track
Ground track

The orbit data is extracted from the following two-line orbital elements,

1 29228U 06021A   17176.56462645 +.00000093 +00000-0 +14478-4 0  9992
2 29228 069.9363 076.7659 0006789 306.0841 053.9690 15.02164625609350
Epoch (UTC): 25 June 2017 13:33:03
Eccentricity: 0.0006789
inclination: 69.9363°
perigee height: 555 km
apogee height: 565 km
right ascension of ascending node: 76.7659°
argument of perigee: 306.0841°
revolutions per day: 15.02164625
mean anomaly at epoch: 53.9690°
orbit number at epoch: 60935

The dashed part of the orbit path shows where the satellite is in the earth's shadow,  

DLR